| time (UTC) | temp C | wind direction | speed KPH | gust KPH | rain 1hr cm | rain 24hr cm | rain mn cm | humidity % | barometer mb |
| 20260506070503 | 8 | 46 | 6.4 | 14.5 | 0.00 | 0.00 | 0.00 | 29 | 1012.7 |
| 20260506062503 | 7 | 47 | 4.8 | 12.9 | 0.00 | 0.00 | 0.00 | 36 | 1012.7 |
| 20260506062003 | 7 | 31 | 4.8 | 14.5 | 0.00 | 0.00 | 0.00 | 37 | 1012.7 |
| 20260506061713 | 7 | 21 | 6.4 | 14.5 | 0.00 | 0.00 | 0.00 | 37 | 1012.8 |
| 20260506061003 | 7 | 35 | 4.8 | 14.5 | 0.00 | 0.00 | 0.00 | 38 | 1012.7 |
| 20260506060503 | 7 | 39 | 4.8 | 12.9 | 0.00 | 0.00 | 0.00 | 40 | 1012.8 |
| 20260506051003 | 1 | 49 | 0.0 | 3.2 | 0.00 | 0.00 | 0.00 | 74 | 1012.9 |
| 20260506050503 | 0 | 56 | 0.0 | 3.2 | 0.00 | 0.00 | 0.00 | 76 | 1012.9 |
| 20260506045003 | 0 | 60 | 0.0 | 3.2 | 0.00 | 0.00 | 0.00 | 75 | 1012.7 |
| 20260506044714 | 0 | 52 | 1.6 | 3.2 | 0.00 | 0.00 | 0.00 | 76 | 1012.9 |
| 20260506044003 | 0 | 35 | 1.6 | 4.8 | 0.00 | 0.00 | 0.00 | 76 | 1012.8 |
| 20260506043503 | 0 | 36 | 1.6 | 4.8 | 0.00 | 0.00 | 0.00 | 76 | 1012.9 |
| 20260506043003 | 0 | 41 | 1.6 | 3.2 | 0.00 | 0.00 | 0.00 | 74 | 1012.9 |
| 20260506042504 | 0 | 86 | 0.0 | 3.2 | 0.00 | 0.00 | 0.00 | 74 | 1013.0 |
| 20260506042003 | 0 | 152 | 0.0 | 3.2 | 0.00 | 0.00 | 0.00 | 72 | 1012.9 |
| 20260506041503 | -1 | 144 | 0.0 | 3.2 | 0.00 | 0.00 | 0.00 | 73 | 1013.0 |
| 20260506041004 | 0 | 117 | 0.0 | 1.6 | 0.00 | 0.00 | 0.00 | 72 | 1013.0 |
| 20260506040503 | 0 | 132 | 0.0 | 3.2 | 0.00 | 0.00 | 0.00 | 70 | 1012.9 |
| 20260506040003 | 0 | 175 | 0.0 | 3.2 | 0.00 | 0.00 | 0.00 | 73 | 1012.7 |
| 20260506035503 | -2 | 237 | 0.0 | 1.6 | 0.00 | 0.00 | 0.00 | 81 | 1012.8 |
| 20260506035003 | -2 | 223 | 0.0 | 1.6 | 0.00 | 0.00 | 0.00 | 82 | 1012.8 |
| 20260506034503 | -2 | 199 | 0.0 | 1.6 | 0.00 | 0.00 | 0.00 | 81 | 1012.7 |
| 20260506034003 | -2 | 40 | 0.0 | 3.2 | 0.00 | 0.00 | 0.00 | 83 | 1012.5 |
| 20260506033503 | -2 | 72 | 0.0 | 3.2 | 0.00 | 0.00 | 0.00 | 84 | 1012.5 |
| 20260506033004 | -3 | 53 | 0.0 | 3.2 | 0.00 | 0.00 | 0.00 | 86 | 1012.6 |
| 20260506032503 | -2 | 20 | 0.0 | 3.2 | 0.00 | 0.00 | 0.00 | 81 | 1012.8 |
| 20260506032003 | -2 | 21 | 0.0 | 3.2 | 0.00 | 0.00 | 0.00 | 80 | 1012.5 |
| 20260506031503 | -3 | 0 | 0.0 | 0.0 | 0.00 | 0.00 | 0.00 | 87 | 1012.5 |
| 20260506031215 | -3 | 93 | 0.0 | 1.6 | 0.00 | 0.00 | 0.00 | 87 | 1012.6 |
| 20260506030503 | -3 | 58 | 0.0 | 3.2 | 0.00 | 0.00 | 0.00 | 88 | 1012.4 |
| 20260506030003 | -3 | 46 | 0.0 | 3.2 | 0.00 | 0.00 | 0.00 | 86 | 1012.5 |
| 20260506025713 | -3 | 48 | 0.0 | 3.2 | 0.00 | 0.00 | 0.00 | 84 | 1012.5 |
| 20260506025212 | -3 | 40 | 0.0 | 3.2 | 0.00 | 0.00 | 0.00 | 86 | 1012.6 |
| 20260506024503 | -3 | 42 | 0.0 | 3.2 | 0.00 | 0.00 | 0.00 | 85 | 1012.7 |
| 20260506024003 | -3 | 41 | 0.0 | 1.6 | 0.00 | 0.00 | 0.00 | 88 | 1012.7 |
| 20260506023503 | -3 | 65 | 0.0 | 1.6 | 0.00 | 0.00 | 0.00 | 90 | 1012.6 |
| 20260506023003 | -3 | 50 | 1.6 | 3.2 | 0.00 | 0.00 | 0.00 | 90 | 1012.7 |
| 20260506022503 | -3 | 39 | 1.6 | 4.8 | 0.00 | 0.00 | 0.00 | 85 | 1012.8 |
| 20260506022003 | -3 | 43 | 1.6 | 4.8 | 0.00 | 0.00 | 0.00 | 83 | 1012.7 |
| 20260506021503 | -3 | 37 | 1.6 | 4.8 | 0.00 | 0.00 | 0.00 | 81 | 1012.8 |
| 20260506021214 | -3 | 29 | 1.6 | 4.8 | 0.00 | 0.00 | 0.00 | 82 | 1012.7 |
| 20260506020504 | -2 | 31 | 1.6 | 3.2 | 0.00 | 0.00 | 0.00 | 82 | 1012.6 |
| 20260506020003 | -2 | 49 | 0.0 | 3.2 | 0.00 | 0.00 | 0.00 | 83 | 1012.7 |
| 20260506015503 | -2 | 30 | 0.0 | 3.2 | 0.00 | 0.00 | 0.00 | 86 | 1012.7 |
| 20260506015003 | -2 | 28 | 1.6 | 3.2 | 0.00 | 0.00 | 0.00 | 83 | 1012.4 |
| 20260506014713 | -3 | 35 | 1.6 | 3.2 | 0.00 | 0.00 | 0.00 | 83 | 1012.6 |
| 20260506014003 | -2 | 42 | 1.6 | 3.2 | 0.00 | 0.00 | 0.00 | 82 | 1012.6 |
| 20260506013503 | -2 | 39 | 1.6 | 3.2 | 0.00 | 0.00 | 0.00 | 82 | 1012.4 |
| 20260506013003 | -2 | 36 | 1.6 | 3.2 | 0.00 | 0.00 | 0.00 | 80 | 1012.7 |
| 20260506012503 | -2 | 36 | 0.0 | 3.2 | 0.00 | 0.00 | 0.00 | 89 | 1012.7 |
| 20260506012003 | -2 | 35 | 1.6 | 3.2 | 0.00 | 0.00 | 0.00 | 86 | 1012.4 |
| 20260506011503 | -2 | 35 | 1.6 | 3.2 | 0.00 | 0.00 | 0.00 | 84 | 1012.5 |
| 20260506011003 | -2 | 29 | 1.6 | 3.2 | 0.00 | 0.00 | 0.00 | 82 | 1012.4 |
| 20260506010503 | -2 | 30 | 1.6 | 3.2 | 0.00 | 0.00 | 0.00 | 81 | 1012.4 |
| 20260506010214 | -2 | 32 | 1.6 | 3.2 | 0.00 | 0.00 | 0.00 | 80 | 1012.4 |
| 20260506005504 | -2 | 35 | 0.0 | 3.2 | 0.00 | 0.00 | 0.00 | 87 | 1012.2 |
| 20260506005003 | -3 | 35 | 1.6 | 4.8 | 0.00 | 0.00 | 0.00 | 89 | 1012.5 |
| 20260506004503 | -2 | 34 | 1.6 | 4.8 | 0.00 | 0.00 | 0.00 | 82 | 1012.4 |
| 20260506004003 | -2 | 41 | 3.2 | 4.8 | 0.00 | 0.00 | 0.00 | 81 | 1012.2 |
| 20260506003503 | -2 | 37 | 1.6 | 3.2 | 0.00 | 0.00 | 0.00 | 82 | 1012.3 |
| 20260506003003 | -2 | 30 | 1.6 | 4.8 | 0.00 | 0.00 | 0.00 | 80 | 1012.3 |
| 20260506002503 | -2 | 31 | 1.6 | 4.8 | 0.00 | 0.00 | 0.00 | 82 | 1012.4 |
| 20260506002003 | -1 | 29 | 1.6 | 4.8 | 0.00 | 0.00 | 0.00 | 80 | 1012.5 |
| 20260506001712 | -1 | 29 | 1.6 | 3.2 | 0.00 | 0.00 | 0.00 | 83 | 1012.4 |
| 20260506001003 | -1 | 31 | 1.6 | 3.2 | 0.00 | 0.00 | 0.00 | 82 | 1012.2 |
| 20260506000712 | -2 | 31 | 1.6 | 3.2 | 0.00 | 0.00 | 0.00 | 82 | 1012.2 |
| 20260506000003 | -2 | 30 | 1.6 | 3.2 | 0.00 | 0.00 | 0.00 | 83 | 1012.3 |
| 20260505235503 | -2 | 35 | 1.6 | 4.8 | 0.00 | 0.00 | 0.00 | 81 | 1012.3 |
| 20260505235003 | -1 | 35 | 3.2 | 4.8 | 0.00 | 0.00 | 0.00 | 79 | 1012.2 |
| 20260505234503 | -1 | 34 | 3.2 | 4.8 | 0.00 | 0.00 | 0.00 | 78 | 1012.3 |
| 20260505234213 | -1 | 30 | 3.2 | 4.8 | 0.00 | 0.00 | 0.00 | 79 | 1012.3 |
| 20260505233503 | -1 | 32 | 3.2 | 4.8 | 0.00 | 0.00 | 0.00 | 82 | 1012.3 |
| 20260505233003 | -1 | 33 | 1.6 | 4.8 | 0.00 | 0.00 | 0.00 | 80 | 1012.3 |
| 20260505232714 | -1 | 37 | 1.6 | 3.2 | 0.00 | 0.00 | 0.00 | 80 | 1012.4 |
| 20260505232003 | -2 | 32 | 1.6 | 4.8 | 0.00 | 0.00 | 0.00 | 81 | 1012.5 |
| 20260505231714 | -1 | 30 | 1.6 | 4.8 | 0.00 | 0.00 | 0.00 | 80 | 1012.3 |
| 20260505231003 | -1 | 28 | 3.2 | 4.8 | 0.00 | 0.00 | 0.00 | 77 | 1012.3 |
| 20260505230503 | -1 | 30 | 3.2 | 4.8 | 0.00 | 0.00 | 0.00 | 76 | 1012.4 |
| 20260505230003 | -1 | 31 | 1.6 | 4.8 | 0.00 | 0.00 | 0.00 | 78 | 1012.4 |
| 20260505225714 | -1 | 29 | 1.6 | 3.2 | 0.00 | 0.00 | 0.00 | 79 | 1012.4 |
| 20260505225003 | -1 | 25 | 1.6 | 3.2 | 0.00 | 0.00 | 0.00 | 82 | 1012.4 |
| 20260505224714 | -1 | 29 | 1.6 | 4.8 | 0.00 | 0.00 | 0.00 | 80 | 1012.4 |
| 20260505224003 | 0 | 38 | 1.6 | 4.8 | 0.00 | 0.00 | 0.00 | 78 | 1012.3 |
| 20260505223503 | -1 | 46 | 1.6 | 3.2 | 0.00 | 0.00 | 0.00 | 80 | 1012.4 |
| 20260505223003 | 0 | 39 | 1.6 | 3.2 | 0.00 | 0.00 | 0.00 | 80 | 1012.5 |
| 20260505222503 | 0 | 41 | 1.6 | 3.2 | 0.00 | 0.00 | 0.00 | 78 | 1012.5 |
| 20260505222003 | -1 | 52 | 1.6 | 3.2 | 0.00 | 0.00 | 0.00 | 80 | 1012.4 |
| 20260505221503 | -1 | 47 | 1.6 | 4.8 | 0.00 | 0.00 | 0.00 | 79 | 1012.4 |
| 20260505221003 | -1 | 44 | 3.2 | 4.8 | 0.00 | 0.00 | 0.00 | 77 | 1012.4 |
| 20260505220503 | 0 | 39 | 3.2 | 4.8 | 0.00 | 0.00 | 0.00 | 75 | 1012.3 |
| 20260505220004 | 0 | 32 | 1.6 | 4.8 | 0.00 | 0.00 | 0.00 | 74 | 1012.4 |
| 20260505215503 | 0 | 24 | 1.6 | 4.8 | 0.00 | 0.00 | 0.00 | 76 | 1012.3 |
| 20260505215212 | 0 | 19 | 1.6 | 4.8 | 0.00 | 0.00 | 0.00 | 75 | 1012.4 |
| 20260505214503 | 0 | 42 | 0.0 | 4.8 | 0.00 | 0.00 | 0.00 | 80 | 1012.4 |
| 20260505214003 | 0 | 43 | 1.6 | 4.8 | 0.00 | 0.00 | 0.00 | 77 | 1012.4 |
| 20260505213503 | 0 | 41 | 3.2 | 3.2 | 0.00 | 0.00 | 0.00 | 74 | 1012.2 |
| 20260505213212 | 0 | 47 | 1.6 | 3.2 | 0.00 | 0.00 | 0.00 | 73 | 1012.3 |
| 20260505212503 | 0 | 39 | 1.6 | 3.2 | 0.00 | 0.00 | 0.00 | 71 | 1012.3 |
| 20260505212003 | 0 | 32 | 1.6 | 3.2 | 0.00 | 0.00 | 0.00 | 73 | 1012.2 |
| 20260505211503 | 0 | 35 | 1.6 | 3.2 | 0.00 | 0.00 | 0.00 | 73 | 1012.2 |
| 20260505211212 | 0 | 41 | 1.6 | 3.2 | 0.00 | 0.00 | 0.00 | 72 | 1012.2 |
| 20260505210503 | 0 | 38 | 1.6 | 4.8 | 0.00 | 0.00 | 0.00 | 74 | 1012.1 |
| 20260505210003 | 0 | 34 | 3.2 | 4.8 | 0.00 | 0.00 | 0.00 | 74 | 1012.1 |
| 20260505205503 | 1 | 35 | 1.6 | 4.8 | 0.00 | 0.00 | 0.00 | 69 | 1012.1 |
| 20260505205214 | 1 | 35 | 1.6 | 4.8 | 0.00 | 0.00 | 0.00 | 67 | 1012.0 |
| 20260505204503 | 1 | 46 | 0.0 | 3.2 | 0.00 | 0.00 | 0.00 | 66 | 1012.1 |
| 20260505204003 | 1 | 29 | 0.0 | 3.2 | 0.00 | 0.00 | 0.00 | 65 | 1012.1 |
| 20260505203503 | 2 | 27 | 1.6 | 4.8 | 0.00 | 0.00 | 0.00 | 64 | 1012.1 |
| 20260505203003 | 2 | 29 | 0.0 | 4.8 | 0.00 | 0.00 | 0.00 | 64 | 1012.1 |
| 20260505202503 | 2 | 42 | 0.0 | 3.2 | 0.00 | 0.00 | 0.00 | 66 | 1011.9 |
| 20260505202003 | 2 | 60 | 1.6 | 3.2 | 0.00 | 0.00 | 0.00 | 63 | 1011.9 |
| 20260505201503 | 2 | 51 | 1.6 | 4.8 | 0.00 | 0.00 | 0.00 | 60 | 1011.9 |
| 20260505201214 | 2 | 41 | 1.6 | 4.8 | 0.00 | 0.00 | 0.00 | 60 | 1012.0 |
| 20260505200503 | 2 | 43 | 1.6 | 4.8 | 0.00 | 0.00 | 0.00 | 57 | 1011.9 |
| 20260505200003 | 3 | 40 | 1.6 | 3.2 | 0.00 | 0.00 | 0.00 | 55 | 1011.8 |
| 20260505195503 | 3 | 307 | 0.0 | 3.2 | 0.00 | 0.00 | 0.00 | 54 | 1011.8 |
| 20260505195214 | 3 | 232 | 0.0 | 3.2 | 0.00 | 0.00 | 0.00 | 52 | 1011.9 |
| 20260505194503 | 4 | 191 | 0.0 | 3.2 | 0.00 | 0.00 | 0.00 | 51 | 1011.7 |
| 20260505194003 | 4 | 208 | 0.0 | 1.6 | 0.00 | 0.00 | 0.00 | 50 | 1011.7 |
| 20260505193503 | 4 | 221 | 0.0 | 1.6 | 0.00 | 0.00 | 0.00 | 47 | 1011.8 |
| 20260505193214 | 5 | 226 | 0.0 | 1.6 | 0.00 | 0.00 | 0.00 | 49 | 1011.6 |
| 20260505192713 | 5 | 225 | 0.0 | 1.6 | 0.00 | 0.00 | 0.00 | 50 | 1011.4 |
| 20260505192003 | 6 | 197 | 0.0 | 3.2 | 0.00 | 0.00 | 0.00 | 45 | 1011.4 |
| 20260505191503 | 6 | 195 | 0.0 | 3.2 | 0.00 | 0.00 | 0.00 | 43 | 1011.2 |
| 20260505191003 | 6 | 177 | 0.0 | 1.6 | 0.00 | 0.00 | 0.00 | 39 | 1011.4 |
| 20260505190503 | 6 | 203 | 0.0 | 4.8 | 0.00 | 0.00 | 0.00 | 37 | 1011.3 |
| 20260505190214 | 7 | 221 | 1.6 | 4.8 | 0.00 | 0.00 | 0.00 | 37 | 1011.3 |
| 20260505185712 | 7 | 243 | 1.6 | 4.8 | 0.00 | 0.00 | 0.00 | 36 | 1011.2 |
| 20260505185003 | 7 | 253 | 1.6 | 4.8 | 0.00 | 0.00 | 0.00 | 34 | 1011.4 |
| 20260505184503 | 7 | 234 | 1.6 | 3.2 | 0.00 | 0.00 | 0.00 | 34 | 1011.2 |
| 20260505184003 | 7 | 235 | 1.6 | 6.4 | 0.00 | 0.00 | 0.00 | 34 | 1011.1 |
| 20260505183503 | 7 | 255 | 3.2 | 8.0 | 0.00 | 0.00 | 0.00 | 33 | 1011.0 |
| 20260505183003 | 8 | 265 | 4.8 | 9.7 | 0.00 | 0.00 | 0.00 | 32 | 1011.1 |
| 20260505182503 | 8 | 268 | 4.8 | 9.7 | 0.00 | 0.00 | 0.00 | 31 | 1011.0 |
| 20260505182213 | 8 | 259 | 3.2 | 9.7 | 0.00 | 0.00 | 0.00 | 31 | 1011.0 |
| 20260505181503 | 8 | 262 | 4.8 | 9.7 | 0.00 | 0.00 | 0.00 | 31 | 1010.9 |
| 20260505181003 | 8 | 265 | 4.8 | 9.7 | 0.00 | 0.00 | 0.00 | 31 | 1010.9 |
| 20260505180503 | 8 | 265 | 4.8 | 11.3 | 0.00 | 0.00 | 0.00 | 30 | 1010.8 |
| 20260505180003 | 8 | 266 | 6.4 | 11.3 | 0.00 | 0.00 | 0.00 | 30 | 1010.9 |
| 20260505175503 | 8 | 266 | 6.4 | 11.3 | 0.00 | 0.00 | 0.00 | 31 | 1010.8 |
| 20260505175213 | 9 | 263 | 6.4 | 11.3 | 0.00 | 0.00 | 0.00 | 30 | 1010.8 |
| 20260505174714 | 9 | 261 | 4.8 | 11.3 | 0.00 | 0.00 | 0.00 | 30 | 1010.7 |
| 20260505174003 | 9 | 268 | 4.8 | 14.5 | 0.00 | 0.00 | 0.00 | 31 | 1011.0 |
| 20260505173503 | 9 | 267 | 4.8 | 14.5 | 0.00 | 0.00 | 0.00 | 31 | 1010.8 |
| 20260505173003 | 9 | 257 | 4.8 | 11.3 | 0.00 | 0.00 | 0.00 | 30 | 1010.8 |
| 20260505172503 | 10 | 250 | 4.8 | 11.3 | 0.00 | 0.00 | 0.00 | 29 | 1010.7 |
| 20260505172003 | 10 | 262 | 4.8 | 12.9 | 0.00 | 0.00 | 0.00 | 30 | 1010.8 |
| 20260505171503 | 10 | 261 | 4.8 | 12.9 | 0.00 | 0.00 | 0.00 | 29 | 1010.6 |
| 20260505171213 | 10 | 256 | 4.8 | 12.9 | 0.00 | 0.00 | 0.00 | 28 | 1010.6 |
| 20260505170503 | 10 | 250 | 4.8 | 11.3 | 0.00 | 0.00 | 0.00 | 29 | 1010.7 |
| 20260505170003 | 10 | 223 | 4.8 | 11.3 | 0.00 | 0.00 | 0.00 | 28 | 1010.6 |
| 20260505165504 | 10 | 230 | 4.8 | 12.9 | 0.00 | 0.00 | 0.00 | 29 | 1010.6 |
| 20260505165003 | 10 | 237 | 4.8 | 12.9 | 0.00 | 0.00 | 0.00 | 28 | 1010.5 |
| 20260505164503 | 10 | 241 | 3.2 | 12.9 | 0.00 | 0.00 | 0.00 | 29 | 1010.7 |
| 20260505164003 | 10 | 222 | 4.8 | 9.7 | 0.00 | 0.00 | 0.00 | 28 | 1010.5 |
| 20260505163503 | 11 | 242 | 6.4 | 9.7 | 0.00 | 0.00 | 0.00 | 27 | 1010.5 |
| 20260505163003 | 10 | 265 | 6.4 | 14.5 | 0.00 | 0.00 | 0.00 | 28 | 1010.5 |
| 20260505162503 | 10 | 252 | 4.8 | 16.1 | 0.00 | 0.00 | 0.00 | 27 | 1010.3 |
| 20260505162003 | 10 | 268 | 8.0 | 20.9 | 0.00 | 0.00 | 0.00 | 27 | 1010.6 |
| 20260505161503 | 10 | 275 | 9.7 | 20.9 | 0.00 | 0.00 | 0.00 | 26 | 1010.5 |
| 20260505161003 | 11 | 256 | 6.4 | 19.3 | 0.00 | 0.00 | 0.00 | 26 | 1010.5 |
| 20260505160503 | 11 | 237 | 4.8 | 12.9 | 0.00 | 0.00 | 0.00 | 25 | 1010.5 |
| 20260505153003 | 11 | 247 | 4.8 | 14.5 | 0.00 | 0.00 | 0.00 | 27 | 1010.3 |
| 20260505152503 | 11 | 254 | 6.4 | 14.5 | 0.00 | 0.00 | 0.00 | 26 | 1010.3 |
| 20260505152003 | 11 | 242 | 6.4 | 17.7 | 0.00 | 0.00 | 0.00 | 27 | 1010.3 |
| 20260505151504 | 11 | 229 | 6.4 | 17.7 | 0.00 | 0.00 | 0.00 | 27 | 1010.2 |
| 20260505151003 | 11 | 238 | 6.4 | 20.9 | 0.00 | 0.00 | 0.00 | 26 | 1010.3 |
| 20260505150503 | 11 | 241 | 6.4 | 20.9 | 0.00 | 0.00 | 0.00 | 26 | 1010.3 |
| 20260505140503 | 12 | 251 | 8.0 | 17.7 | 0.00 | 0.00 | 0.00 | 24 | 1010.1 |
| 20260505125003 | 12 | 236 | 4.8 | 14.5 | 0.00 | 0.00 | 0.00 | 23 | 1009.9 |
| 20260505124503 | 12 | 227 | 4.8 | 19.3 | 0.00 | 0.00 | 0.00 | 25 | 1010.2 |
| 20260505124003 | 12 | 235 | 6.4 | 19.3 | 0.00 | 0.00 | 0.00 | 23 | 1010.1 |
| 20260505123503 | 12 | 250 | 6.4 | 17.7 | 0.00 | 0.00 | 0.00 | 23 | 1010.2 |
| 20260505123003 | 12 | 248 | 8.0 | 17.7 | 0.00 | 0.00 | 0.00 | 26 | 1010.1 |
| 20260505122503 | 12 | 229 | 8.0 | 17.7 | 0.00 | 0.00 | 0.00 | 24 | 1010.1 |
| 20260505122003 | 12 | 225 | 6.4 | 12.9 | 0.00 | 0.00 | 0.00 | 26 | 1010.0 |
| 20260505121503 | 12 | 232 | 4.8 | 24.1 | 0.00 | 0.00 | 0.00 | 25 | 1010.0 |
| 20260505121003 | 11 | 223 | 4.8 | 24.1 | 0.00 | 0.00 | 0.00 | 26 | 1010.3 |
| 20260505120503 | 12 | 211 | 4.8 | 16.1 | 0.00 | 0.00 | 0.00 | 26 | 1010.1 |
| 20260505120004 | 11 | 237 | 4.8 | 16.1 | 0.00 | 0.00 | 0.00 | 26 | 1010.2 |
| 20260505115503 | 11 | 252 | 6.4 | 12.9 | 0.00 | 0.00 | 0.00 | 25 | 1010.2 |
| 20260505115003 | 12 | 247 | 6.4 | 12.9 | 0.00 | 0.00 | 0.00 | 27 | 1010.2 |
| 20260505114503 | 12 | 253 | 6.4 | 14.5 | 0.00 | 0.00 | 0.00 | 26 | 1010.0 |
| 20260505114003 | 12 | 229 | 6.4 | 17.7 | 0.00 | 0.00 | 0.00 | 28 | 1010.0 |
| 20260505113503 | 12 | 214 | 6.4 | 17.7 | 0.00 | 0.00 | 0.00 | 26 | 1010.0 |
| 20260505113003 | 11 | 228 | 8.0 | 20.9 | 0.00 | 0.00 | 0.00 | 26 | 1010.2 |
| 20260505112503 | 11 | 233 | 8.0 | 20.9 | 0.00 | 0.00 | 0.00 | 27 | 1010.3 |
| 20260505112003 | 11 | 247 | 6.4 | 19.3 | 0.00 | 0.00 | 0.00 | 27 | 1010.3 |
| 20260505111503 | 11 | 244 | 4.8 | 19.3 | 0.00 | 0.00 | 0.00 | 28 | 1010.1 |
| 20260505111003 | 10 | 261 | 8.0 | 16.1 | 0.00 | 0.00 | 0.00 | 29 | 1010.3 |
| 20260505110503 | 10 | 281 | 9.7 | 25.7 | 0.00 | 0.00 | 0.00 | 27 | 1010.1 |
| 20260505102003 | 10 | 242 | 4.8 | 12.9 | 0.00 | 0.00 | 0.00 | 28 | 1010.1 |
| 20260505101503 | 10 | 212 | 4.8 | 16.1 | 0.00 | 0.00 | 0.00 | 25 | 1010.1 |
| 20260505101003 | 10 | 219 | 6.4 | 17.7 | 0.00 | 0.00 | 0.00 | 26 | 1010.2 |
| 20260505100503 | 10 | 229 | 6.4 | 17.7 | 0.00 | 0.00 | 0.00 | 27 | 1010.2 |
| 20260505100003 | 11 | 232 | 6.4 | 16.1 | 0.00 | 0.00 | 0.00 | 26 | 1010.3 |
| 20260505095713 | 11 | 228 | 6.4 | 16.1 | 0.00 | 0.00 | 0.00 | 25 | 1010.2 |
| 20260505095003 | 11 | 238 | 6.4 | 16.1 | 0.00 | 0.00 | 0.00 | 26 | 1010.2 |
| 20260505094503 | 10 | 260 | 4.8 | 14.5 | 0.00 | 0.00 | 0.00 | 27 | 1010.1 |
| 20260505094003 | 11 | 234 | 3.2 | 12.9 | 0.00 | 0.00 | 0.00 | 27 | 1010.5 |
| 20260505093503 | 10 | 195 | 3.2 | 19.3 | 0.00 | 0.00 | 0.00 | 33 | 1010.1 |
| 20260505093214 | 10 | 225 | 6.4 | 19.3 | 0.00 | 0.00 | 0.00 | 31 | 1010.2 |
| 20260505092503 | 10 | 246 | 8.0 | 19.3 | 0.00 | 0.00 | 0.00 | 29 | 1010.2 |
| 20260505092214 | 10 | 229 | 6.4 | 16.1 | 0.00 | 0.00 | 0.00 | 29 | 1010.2 |
| 20260505091503 | 10 | 236 | 4.8 | 16.1 | 0.00 | 0.00 | 0.00 | 31 | 1010.2 |
| 20260505091003 | 10 | 242 | 6.4 | 12.9 | 0.00 | 0.00 | 0.00 | 32 | 1010.1 |
| 20260505090503 | 10 | 269 | 4.8 | 22.5 | 0.00 | 0.00 | 0.00 | 32 | 1010.2 |
| 20260505090003 | 10 | 256 | 4.8 | 22.5 | 0.00 | 0.00 | 0.00 | 34 | 1010.1 |
| 20260505085503 | 9 | 217 | 4.8 | 14.5 | 0.00 | 0.00 | 0.00 | 33 | 1010.1 |
| 20260505085003 | 10 | 221 | 6.4 | 14.5 | 0.00 | 0.00 | 0.00 | 33 | 1010.2 |
| 20260505084713 | 9 | 220 | 6.4 | 14.5 | 0.00 | 0.00 | 0.00 | 33 | 1010.2 |
| 20260505084003 | 10 | 243 | 6.4 | 14.5 | 0.00 | 0.00 | 0.00 | 35 | 1010.0 |
| 20260505083503 | 8 | 221 | 4.8 | 12.9 | 0.00 | 0.00 | 0.00 | 37 | 1010.1 |
| 20260505083214 | 9 | 236 | 4.8 | 14.5 | 0.00 | 0.00 | 0.00 | 34 | 1010.1 |
| 20260505082503 | 8 | 255 | 6.4 | 14.5 | 0.00 | 0.00 | 0.00 | 40 | 1010.0 |
| 20260505082213 | 8 | 264 | 6.4 | 17.7 | 0.00 | 0.00 | 0.00 | 37 | 1010.2 |
| 20260505081712 | 8 | 250 | 6.4 | 17.7 | 0.00 | 0.00 | 0.00 | 39 | 1010.0 |
| 20260505081213 | 8 | 212 | 4.8 | 11.3 | 0.00 | 0.00 | 0.00 | 41 | 1009.9 |
| 20260505080712 | 8 | 224 | 4.8 | 16.1 | 0.00 | 0.00 | 0.00 | 40 | 1009.9 |
| 20260505080003 | 8 | 258 | 3.2 | 16.1 | 0.00 | 0.00 | 0.00 | 41 | 1009.9 |
| 20260505075712 | 7 | 247 | 3.2 | 14.5 | 0.00 | 0.00 | 0.00 | 41 | 1009.9 |
| 20260505075003 | 8 | 236 | 4.8 | 14.5 | 0.00 | 0.00 | 0.00 | 41 | 1009.9 |
| 20260505074503 | 7 | 270 | 4.8 | 14.5 | 0.00 | 0.00 | 0.00 | 42 | 1009.8 |
| 20260505074003 | 7 | 279 | 3.2 | 9.7 | 0.00 | 0.00 | 0.00 | 44 | 1009.9 |
| 20260505073504 | 7 | 272 | 4.8 | 12.9 | 0.00 | 0.00 | 0.00 | 47 | 1010.0 |
| 20260505073213 | 7 | 278 | 4.8 | 12.9 | 0.00 | 0.00 | 0.00 | 47 | 1009.7 |
| 20260505072714 | 7 | 268 | 4.8 | 9.7 | 0.00 | 0.00 | 0.00 | 47 | 1009.7 |
| 20260505072213 | 7 | 271 | 4.8 | 12.9 | 0.00 | 0.00 | 0.00 | 51 | 1009.9 |
| 20260505071503 | 7 | 279 | 6.4 | 14.5 | 0.00 | 0.00 | 0.00 | 54 | 1009.7 |
| 20260505071003 | 7 | 282 | 4.8 | 14.5 | 0.00 | 0.00 | 0.00 | 52 | 1009.7 |
| 20260505070714 | 7 | 274 | 4.8 | 11.3 | 0.00 | 0.00 | 0.00 | 52 | 1009.9 |